Change the Weather History Date:

Sunday, December 30, 2012

  Actual Average Record
Temperature  
Mean Temperature 38 °F -  
Max Temperature 42 °F 32 °F 48 °F (2000)
Min Temperature 33 °F 24 °F 0 °F (1984)
Degree Days  
Heating Degree Days 28    
Moisture  
Dew Point 34 °F    
Average Humidity 80    
Maximum Humidity 87    
Minimum Humidity 70    
Precipitation  
Precipitation 0.57 in - - ()
Sea Level Pressure  
Sea Level Pressure 29.93 in    
Wind  
Wind Speed 4 mph (SE)    
Max Wind Speed 10 mph    
Max Gust Speed 22 mph    
Visibility 9 miles    
Events      
Averages and records for this station are not official NWS values.
T = Trace of Precipitation, MM = Missing Value Source: NWS Daily Summary

Daily Weather History Graph

Daily Weather History Graph

Search for Another Location

Airport or City:

Trip Planner

Search our weather history database for the weather conditions in past years. The results will help you decide how hot, cold, wet, or windy it might be!

Date:

Astronomy

Dec. 30, 2012 Rise Set
Actual Time 8:28 AM AKST 3:20 PM AKST
Civil Twilight 7:40 AM AKST 4:09 PM AKST
Nautical Twilight 6:50 AM AKST 4:59 PM AKST
Astronomical Twilight 6:03 AM AKST 5:46 PM AKST
Moon 6:35 PM AKST (12/30) 9:09 AM AKST (12/30)
Length of Visible Light 8h 29m
Length of Day
6h 51m
Waning Gibbous, 94% of the Moon is Illuminated
Dec 30
Waning Gibbous
Jan 4
Last Quarter
Jan 11
New
Jan 18
First Quarter
Jan 26
Full

Hourly Weather History & Observations

Time (AKST) Temp. Windchill Dew Point Humidity Pressure Visibility Wind Dir Wind Speed Gust Speed Precip Events Conditions
12:16 AM 33.8 °F 27.0 °F 30.2 °F 87% 30.04 in 10.0 mi NW 8.1 mph - N/A   Overcast
12:36 AM 35.6 °F - 30.2 °F 81% 30.04 in 10.0 mi Calm Calm - N/A   Overcast
12:56 AM 35.6 °F 32.8 °F 30.2 °F 81% 30.04 in 10.0 mi West 3.5 mph - N/A   Overcast
1:16 AM 35.6 °F 30.7 °F 32.0 °F 87% 30.05 in 10.0 mi SSW 5.8 mph - N/A   Overcast
1:36 AM 37.4 °F 34.9 °F 32.0 °F 81% 30.05 in 10.0 mi WNW 3.5 mph - N/A   Overcast
1:56 AM 35.6 °F 32.8 °F 32.0 °F 87% 30.05 in 10.0 mi SSW 3.5 mph - N/A   Overcast
2:16 AM 37.4 °F 34.9 °F 33.8 °F 87% 30.05 in 10.0 mi WNW 3.5 mph - N/A   Overcast
2:36 AM 35.6 °F - 32.0 °F 87% 30.05 in 10.0 mi Calm Calm - N/A   Overcast
3:16 AM 37.4 °F - 33.8 °F 87% 30.03 in 10.0 mi Calm Calm - N/A   Overcast
3:36 AM 37.4 °F 34.9 °F 33.8 °F 87% 30.01 in 10.0 mi ESE 3.5 mph - N/A   Overcast
3:56 AM 37.4 °F 32.8 °F 33.8 °F 87% 30.00 in 10.0 mi ESE 5.8 mph - N/A   Overcast
4:16 AM 39.2 °F 34.2 °F 33.8 °F 81% 29.99 in 10.0 mi NNW 6.9 mph - N/A   Overcast
4:36 AM 41.0 °F 35.8 °F 33.8 °F 76% 30.00 in 10.0 mi South 8.1 mph - N/A   Overcast
4:56 AM 41.0 °F 39.0 °F 33.8 °F 76% 29.99 in 10.0 mi SSW 3.5 mph - N/A   Overcast
5:16 AM 41.0 °F 35.8 °F 33.8 °F 76% 29.98 in 10.0 mi ESE 8.1 mph - N/A   Overcast
5:36 AM 42.8 °F 38.0 °F 33.8 °F 70% 29.98 in 10.0 mi SE 8.1 mph - 0.01 in   Overcast
5:56 AM 39.2 °F - 33.8 °F 81% 29.98 in 10.0 mi Calm Calm - 0.01 in   Overcast
6:16 AM 41.0 °F 39.0 °F 33.8 °F 76% 29.98 in 10.0 mi ESE 3.5 mph - N/A   Overcast
6:36 AM 41.0 °F 35.8 °F 33.8 °F 76% 29.98 in 10.0 mi SSE 8.1 mph - 0.02 in   Overcast
6:56 AM 39.2 °F - 33.8 °F 81% 29.98 in 10.0 mi Calm Calm - 0.03 in   Overcast
7:16 AM 39.2 °F 35.9 °F 33.8 °F 81% 29.98 in 10.0 mi SW 4.6 mph - 0.02 in   Overcast
7:36 AM 39.2 °F - 33.8 °F 81% 29.98 in 10.0 mi Calm Calm - 0.05 in   Overcast
7:56 AM 39.2 °F 35.9 °F 33.8 °F 81% 29.98 in 7.0 mi NW 4.6 mph - 0.07 in   Overcast
8:16 AM 39.2 °F - 35.6 °F 87% 29.97 in 7.0 mi Calm Calm - 0.01 in   Overcast
8:36 AM 39.2 °F - 33.8 °F 81% 29.97 in 7.0 mi Calm Calm - 0.04 in   Overcast
8:56 AM 39.2 °F 35.0 °F 33.8 °F 81% 29.98 in 7.0 mi SW 5.8 mph - 0.05 in   Overcast
9:16 AM 39.2 °F 37.0 °F 35.6 °F 87% 29.97 in 7.0 mi South 3.5 mph - 0.02 in   Overcast
9:36 AM 39.2 °F 34.2 °F 33.8 °F 81% 29.98 in 7.0 mi ESE 6.9 mph - 0.04 in   Overcast
9:56 AM 39.2 °F - 33.8 °F 81% 29.98 in 7.0 mi Calm Calm - 0.05 in   Overcast
10:16 AM 39.2 °F 35.9 °F 33.8 °F 81% 29.97 in 7.0 mi North 4.6 mph - 0.04 in   Overcast
10:36 AM 39.2 °F - 33.8 °F 81% 29.97 in 7.0 mi Calm Calm - 0.06 in   Overcast
10:56 AM 39.2 °F - 33.8 °F 81% 29.97 in 7.0 mi Calm Calm - 0.08 in   Overcast
11:16 AM 41.0 °F 37.1 °F 35.6 °F 81% 29.96 in 7.0 mi East 5.8 mph - 0.02 in   Overcast
11:36 AM 42.8 °F 38.6 °F 33.8 °F 70% 29.97 in 7.0 mi SSE 6.9 mph - 0.02 in   Overcast
11:56 AM 42.8 °F 39.3 °F 35.6 °F 76% 29.96 in 10.0 mi ESE 5.8 mph - 0.02 in   Mostly Cloudy
12:16 PM 42.8 °F 37.5 °F 35.6 °F 76% 29.95 in 10.0 mi ESE 9.2 mph - N/A   Mostly Cloudy
12:36 PM 42.8 °F 37.0 °F 33.8 °F 70% 29.95 in 10.0 mi ESE 10.4 mph 21.9 mph N/A   Mostly Cloudy
12:56 PM 42.8 °F 37.5 °F 33.8 °F 70% 29.94 in 10.0 mi ESE 9.2 mph - 0.01 in   Overcast
1:16 PM 42.8 °F - 33.8 °F 70% 29.94 in 10.0 mi Calm Calm - N/A   Overcast
1:36 PM 42.8 °F 40.1 °F 33.8 °F 70% 29.93 in 10.0 mi South 4.6 mph - N/A   Overcast
1:56 PM 42.8 °F 39.3 °F 33.8 °F 70% 29.92 in 10.0 mi ESE 5.8 mph - N/A   Overcast
2:16 PM 42.8 °F 41.1 °F 33.8 °F 70% 29.92 in 10.0 mi East 3.5 mph - N/A   Overcast
2:36 PM 42.8 °F 37.5 °F 33.8 °F 70% 29.91 in 10.0 mi ESE 9.2 mph 16.1 mph N/A   Overcast
2:56 PM 42.8 °F 38.0 °F 35.6 °F 76% 29.90 in 10.0 mi East 8.1 mph - N/A   Overcast
3:16 PM 42.8 °F 40.1 °F 35.6 °F 76% 29.89 in 10.0 mi East 4.6 mph - N/A   Overcast
3:36 PM 42.8 °F 38.6 °F 35.6 °F 76% 29.88 in 10.0 mi ESE 6.9 mph - N/A   Overcast
3:56 PM 42.8 °F 38.6 °F 35.6 °F 76% 29.88 in 10.0 mi SE 6.9 mph 16.1 mph 0.01 in   Overcast
4:16 PM 42.8 °F 39.3 °F 35.6 °F 76% 29.87 in 10.0 mi ESE 5.8 mph - N/A   Overcast
4:36 PM 42.8 °F 39.3 °F 35.6 °F 76% 29.86 in 10.0 mi East 5.8 mph - N/A   Overcast
4:56 PM 42.8 °F 38.6 °F 35.6 °F 76% 29.85 in 10.0 mi East 6.9 mph - 0.02 in   Overcast
5:16 PM 41.0 °F 37.1 °F 35.6 °F 81% 29.85 in 10.0 mi SSE 5.8 mph - 0.02 in   Overcast
5:36 PM 42.8 °F 38.0 °F 35.6 °F 76% 29.84 in 10.0 mi ESE 8.1 mph - 0.04 in   Overcast
5:56 PM 42.8 °F 37.5 °F 35.6 °F 76% 29.83 in 7.0 mi East 9.2 mph - 0.04 in   Overcast
6:16 PM 42.8 °F - 35.6 °F 76% 29.82 in 7.0 mi Calm Calm - 0.01 in   Overcast
6:36 PM 42.8 °F 41.1 °F 35.6 °F 76% 29.82 in 7.0 mi WNW 3.5 mph - 0.03 in   Overcast
6:56 PM 39.2 °F 33.0 °F 35.6 °F 87% 29.82 in 7.0 mi East 9.2 mph - 0.04 in   Overcast
7:16 PM 39.2 °F - 33.8 °F 81% 29.82 in 7.0 mi Calm Calm - 0.02 in   Overcast
7:36 PM 39.2 °F 37.0 °F 35.6 °F 87% 29.82 in 7.0 mi NNE 3.5 mph - 0.04 in   Overcast
9:16 PM 39.2 °F 37.0 °F 35.6 °F 87% 29.81 in 6.0 mi North 3.5 mph - N/A   Overcast
9:36 PM 41.0 °F 36.4 °F 35.6 °F 81% 29.81 in 6.0 mi East 6.9 mph - N/A   Overcast
9:56 PM 41.0 °F - 35.6 °F 81% 29.81 in 10.0 mi Calm Calm - N/A   Overcast
10:16 PM 39.2 °F - 35.6 °F 87% 29.81 in 9.0 mi Calm Calm - N/A   Overcast
10:36 PM 41.0 °F - 37.4 °F 87% 29.81 in 9.0 mi Calm Calm - N/A   Overcast
10:56 PM 39.2 °F 35.9 °F 35.6 °F 87% 29.82 in 7.0 mi West 4.6 mph - 0.09 in   Overcast
11:16 PM 41.0 °F 36.4 °F 35.6 °F 81% 29.81 in 10.0 mi SSE 6.9 mph - 0.01 in   Overcast
11:36 PM 41.0 °F - 35.6 °F 81% 29.81 in 10.0 mi Calm Calm - 0.01 in   Overcast